TimeCDT,TemperatureF,Dew PointF,Humidity,Sea Level PressureIn,VisibilityMPH,Wind Direction,Wind SpeedMPH,Gust SpeedMPH,PrecipitationIn,Events,Conditions,WindDirDegrees,DateUTC
12:54 AM,39.0,37.9,96,30.04,7.0,Calm,Calm,-,N/A,,Clear,0,2011-10-23 05:54:00
1:54 AM,36.0,35.1,97,30.04,6.0,NNW,3.5,-,N/A,,Clear,330,2011-10-23 06:54:00
2:54 AM,35.1,34.0,96,30.03,4.0,Calm,Calm,-,N/A,,Partly Cloudy,0,2011-10-23 07:54:00
3:54 AM,39.0,37.0,93,30.01,8.0,Calm,Calm,-,N/A,,Overcast,0,2011-10-23 08:54:00
4:54 AM,35.6,33.8,93,30.00,9.0,Calm,Calm,-,N/A,,Clear,0,2011-10-23 09:54:00
5:54 AM,36.0,35.1,97,30.00,1.0,Calm,Calm,-,N/A,,Clear,0,2011-10-23 10:54:00
6:09 AM,37.4,35.6,93,29.99,10.0,Calm,Calm,-,N/A,,Clear,0,2011-10-23 11:09:00
6:54 AM,36.0,35.1,97,30.00,10.0,Calm,Calm,-,N/A,,Clear,0,2011-10-23 11:54:00
7:11 AM,35.6,33.8,93,29.98,2.5,Calm,Calm,-,N/A,,Clear,0,2011-10-23 12:11:00
7:19 AM,37.4,35.6,93,29.98,9.0,Calm,Calm,-,N/A,,Clear,0,2011-10-23 12:19:00
7:54 AM,37.0,36.0,96,30.00,9.0,Calm,Calm,-,N/A,,Clear,0,2011-10-23 12:54:00
8:54 AM,39.9,39.0,97,30.01,7.0,South,3.5,-,N/A,,Clear,170,2011-10-23 13:54:00
9:54 AM,50.0,43.0,77,30.00,10.0,SW,3.5,-,N/A,,Clear,220,2011-10-23 14:54:00
10:54 AM,57.9,45.0,62,29.98,10.0,SW,6.9,-,N/A,,Clear,220,2011-10-23 15:54:00
11:54 AM,66.9,45.0,45,29.96,10.0,WSW,8.1,-,N/A,,Clear,240,2011-10-23 16:54:00
12:54 PM,73.0,44.1,35,29.94,10.0,WSW,11.5,-,N/A,,Clear,250,2011-10-23 17:54:00
1:54 PM,75.9,43.0,31,29.91,10.0,WSW,10.4,-,N/A,,Clear,250,2011-10-23 18:54:00
2:54 PM,78.1,39.9,25,29.89,10.0,West,11.5,19.6,N/A,,Clear,260,2011-10-23 19:54:00
3:54 PM,79.0,39.0,24,29.88,10.0,West,12.7,-,N/A,,Clear,280,2011-10-23 20:54:00
4:54 PM,77.0,39.0,25,29.89,10.0,WNW,15.0,-,N/A,,Clear,300,2011-10-23 21:54:00
5:54 PM,73.9,41.0,30,29.91,10.0,WNW,9.2,-,N/A,,Clear,300,2011-10-23 22:54:00
6:54 PM,69.1,39.0,33,29.94,10.0,NW,8.1,-,N/A,,Clear,320,2011-10-23 23:54:00
7:54 PM,64.9,36.0,34,29.98,10.0,WNW,9.2,-,N/A,,Clear,300,2011-10-24 00:54:00
8:54 PM,52.0,37.0,57,30.01,10.0,North,8.1,-,N/A,,Clear,360,2011-10-24 01:54:00
9:54 PM,50.0,37.0,61,30.04,10.0,NNW,3.5,-,N/A,,Clear,340,2011-10-24 02:54:00
10:54 PM,46.0,36.0,68,30.05,10.0,Calm,Calm,-,N/A,,Clear,0,2011-10-24 03:54:00
11:54 PM,46.0,37.0,71,30.05,10.0,Calm,Calm,-,N/A,,Clear,0,2011-10-24 04:54:00